{"data":{"norad_id":59258,"epoch":"2026-09-21T14:34:54.739200Z","epoch_age_seconds":66556,"freshness":"FRESH","line1":"1 59258U 24050E   26264.60757800  .00013232  00000+0  40279-3 0  9998","line2":"2 59258  53.1628 348.2008 0001759  89.9058 270.2146 15.34343045140584","mean_motion":15.34343045,"eccentricity":0.0001759,"inclination_deg":53.1628,"raan_deg":348.2008,"arg_perigee_deg":89.9058,"mean_anomaly_deg":270.2146,"bstar":0.00040279,"rev_number":14058,"period_min":93.851241721502,"perigee_km":461.66919413036,"apogee_km":464.07586128221,"semimajor_km":6841.0095277063,"source":"CELESTRAK","updated_at":"2026-09-22T09:00:48.871591Z"}}